Location: Beetenbrück
(52.8113°N, 9.5946°E)
Time: 22:09:29
(UTC+00:00)

Meteor 1-31 Rocket - Pass Details

Date: 14 April 2026
Orbit: 454 x 472 km, 97.6° (Epoch: 12 May)

Event Time Altitude Azimuth Distance (km) Brightness Sun altitude
Rises 19:23:42 0° 180° (S) 2,511 5.9 -9.7°
Reaches altitude 10° 19:25:48 10° 187° (S) 1,640 5.0 -10.0°
Maximum altitude 19:29:11 44° 260° (W) 669 3.7 -10.4°
Drops below altitude 10° 19:32:37 10° 334° (NNW) 1,654 6.2 -10.9°
Sets 19:34:45 0° 341° (NNW) 2,536 7.1 -11.1°
